Back to catalog

CZ-4 DEB

AlivePO
NORAD 35381·DEBRIS·🇨🇳 China

Launched Oct 21, 2003 from Taiyuan Satellite Launch Center

Loading…

Next Passes (next 24 hours)

TLE

FreshSource: Space-Track

Epoch: Sep 13, 2026, 02:42 UTC

1 35381U 03049H   26256.11252252  .00089844  00000-0  16057-2 0  9991
2 35381  98.5962 133.6827 0016186 223.1834 136.8145 15.49557704212905

Track CZ-4 DEB in real time with AllMySat

Download on the App Store